Location: *
(51.4660°N, 0.3360°W)
Time: 17:28:26
(UTC+00:00)

Cosmos 1980 - Pass Details

Date: 19 September 2019
Orbit: 841 x 846 km, 71.0° (Epoch: 14 October)

Event Time Altitude Azimuth Distance (km) Brightness Sun altitude
Rises 19:34:12 0° 328° (NNW) 3,410 7.8 -14.0°
Reaches altitude 10° 19:36:39 10° 327° (NNW) 2,471 7.0 -14.4°
Maximum altitude 19:42:17 71° 244° (WSW) 890 3.9 -15.2°
Enters shadow 19:47:40 11° 162° (SSE) 2,372 5.7 -16.0°
